Vertical_Velocity
3 2 1 0 0 3 9 18 17 11 4 0 2 4 7 10 11 10 10 8 5 3 2 0 -0 -1 -1 -1 -1 -0 -0 -0 -1 -1 -1 -1 -1 -1 -1 -1 0 0 0 1 2 2 1 -0 -0 1 3 2 2 2 3 3 3 3 4 4 6 6 5 4 3 4 4 3 2
3 2 1 0 2 6 13 20 18 14 8 3 3 4 6 6 3 1 -1 -2 -2 -1 -0 -0 0 1 2 2 3 3 2 1 0 -0 -0 0 0 0 0 0 0 0 1 1 1 1 1 1 0 0 0 -1 -0 0 1 3 4 3 2 0 0 1 1 1 2 2 2 -0 -2
3 2 0 -0 3 7 10 13 13 11 8 4 3 3 2 1 -0 -2 -3 -3 -2 -1 -0 1 1 2 3 4 3 3 2 1 1 1 2 2 3 2 2 2 1 1 1 1 0 1 1 1 1 1 1 1 2 1 2 3 4 4 3 1 -0 -0 -0 -0 1 1 1 -1 -2
4 2 0 0 4 7 8 9 8 6 3 2 1 -1 -2 -4 -4 -3 -2 -1 -1 -2 -2 -3 -4 -3 -1 -0 0 1 2 2 3 3 3 3 2 2 1 1 1 1 1 1 1 2 2 3 3 3 3 4 4 4 4 4 4 3 3 2 1 1 1 2 3 3 2 0 -0
4 2 1 1 5 7 8 7 4 2 1 -0 -2 -4 -4 -4 -4 -4 -3 -2 -2 -2 -2 -4 -6 -6 -4 -1 2 3 4 4 3 3 2 1 1 1 1 2 3 3 3 3 2 2 3 4 4 4 4 4 5 5 5 4 4 3 2 2 2 2 2 5 6 6 5 4 3
3 2 1 0 3 6 6 3 1 -0 -1 -3 -4 -5 -4 -3 -3 -2 -2 -2 -2 -1 -1 1 2 3 4 8 8 7 5 4 3 3 2 2 3 3 4 5 6 4 3 1 0 1 1 1 2 2 2 2 4 5 6 6 6 5 4 2 2 1 2 5 7 9 10 10 10
2 2 2 2 2 3 3 -0 -2 -3 -4 -5 -5 -5 -5 -4 -1 2 4 4 1 -1 0 5 13 16 18 18 15 13 12 10 9 8 8 8 7 6 6 6 4 3 1 -0 -2 -2 -1 -1 0 0 1 2 6 8 9 8 8 8 6 4 4 4 5 6 8 10 10 11 11
1 1 2 2 1 1 0 -3 -4 -4 -4 -4 -4 -4 -4 -1 5 9 11 8 3 1 3 10 18 23 23 18 16 16 17 17 17 15 14 12 11 9 7 4 4 5 4 1 2 3 4 4 4 3 2 3 8 10 10 9 10 12 12 10 10 11 13 14 11 9 8 8 8
-2 -2 -2 -1 -1 -1 -2 -4 -5 -2 1 5 6 6 7 10 16 17 15 10 6 5 9 16 20 20 17 11 9 10 13 14 14 14 12 11 10 8 7 8 10 9 6 3 6 7 8 8 7 5 4 4 7 8 8 6 9 12 13 12 12 13 12 11 8 6 5 5 6
-6 -6 -4 -2 -3 -3 -4 -4 -3 2 10 16 19 20 22 25 28 27 24 19 16 14 15 18 18 15 11 6 5 6 6 6 6 5 4 2 1 3 7 12 12 11 9 4 4 4 6 7 6 5 4 4 6 6 6 5 5 6 8 9 10 10 9 7 6 6 6 6 5
-6 -5 -4 -2 -3 -3 -3 -3 -1 5 12 17 21 24 27 29 30 30 29 27 24 22 20 17 15 12 8 6 4 3 3 2 2 2 1 -1 0 3 6 9 10 10 8 5 1 0 2 7 8 6 3 1 2 3 3 3 3 3 5 7 8 9 8 7 5 5 5 5 4
-7 -5 -3 -1 -1 -0 1 3 5 7 10 12 16 18 21 22 23 23 23 23 22 21 18 15 12 9 8 6 4 2 1 0 1 3 4 4 4 5 6 6 5 4 3 1 -1 -2 -1 3 6 5 2 -2 -2 -1 -0 0 1 2 4 5 6 6 6 5 3 2 2 2 1
-0 1 3 4 6 8 9 10 10 10 9 8 10 12 15 16 16 16 15 15 15 14 12 10 8 7 6 4 3 1 0 -0 1 2 4 6 7 6 5 4 2 0 -1 -2 -3 -2 -2 -1 1 2 0 -1 -1 -1 -1 -0 -0 0 1 2 2 3 3 2 2 1 1 0 -0
19 19 19 18 17 16 15 14 13 12 10 8 9 10 12 13 13 12 10 8 8 7 6 5 4 4 3 2 1 1 1 1 1 2 4 5 6 6 4 2 1 -1 -2 -3 -2 -2 -1 -1 -1 -1 -1 -0 -0 -0 0 0 -0 -0 -0 0 0 0 0 1 1 1 1 0 -0
28 28 28 25 21 18 16 16 16 14 13 11 10 10 10 10 9 7 5 3 3 2 2 2 2 1 1 1 1 0 0 -0 0 1 2 4 4 4 3 1 0 -1 -2 -2 -2 -2 -2 -1 -1 -1 -1 -0 -0 -0 -0 -0 -1 -1 -1 -0 -0 -0 -0 -0 -0 -0 0 -0 -1
19 20 21 20 18 16 16 16 15 15 14 13 12 10 9 8 6 3 1 -1 -2 -1 -1 -1 -0 -0 -0 -1 -1 -1 -1 -1 -1 -1 -0 0 1 1 0 0 -0 -1 -1 -2 -2 -2 -2 -2 -2 -2 -2 -2 -1 -1 -2 -2 -2 -2 -2 -1 -1 -1 -1 -1 -1 -2 -2 -2 -2
9 11 12 12 12 12 12 12 12 12 12 11 10 9 8 6 3 -0 -2 -4 -5 -5 -4 -2 -1 -1 -2 -2 -2 -3 -3 -4 -4 -3 -3 -2 -2 -1 -1 -1 -1 -1 -1 -1 -2 -2 -2 -2 -2 -2 -2 -2 -2 -2 -2 -2 -2 -2 -2 -2 -2 -2 -2 -2 -2 -2 -3 -3 -4
5 6 7 8 8 8 8 9 9 9 8 8 7 6 4 2 -1 -3 -4 -5 -6 -6 -4 -3 -2 -3 -3 -4 -4 -5 -5 -5 -5 -5 -4 -3 -3 -3 -2 -2 -2 -2 -1 -2 -2 -2 -2 -2 -2 -2 -2 -2 -1 -1 -2 -2 -2 -2 -2 -2 -2 -2 -2 -2 -2 -2 -2 -3 -4
3 3 4 4 5 5 6 6 5 5 4 3 2 1 -1 -2 -4 -5 -6 -6 -6 -5 -4 -3 -4 -4 -5 -5 -5 -5 -5 -5 -5 -4 -4 -4 -3 -3 -3 -3 -2 -2 -2 -2 -3 -3 -3 -3 -3 -3 -2 -2 -1 -1 -1 -1 -2 -2 -2 -2 -2 -2 -2 -2 -2 -2 -1 -2 -3
-0 -0 0 0 1 1 1 1 1 0 -1 -2 -3 -4 -5 -5 -6 -6 -6 -6 -6 -6 -5 -5 -5 -5 -5 -5 -5 -5 -4 -4 -4 -4 -4 -4 -4 -3 -3 -3 -2 -2 -2 -2 -2 -3 -4 -4 -4 -3 -2 -1 -1 -1 -0 -1 -1 -1 -1 -1 -1 -1 -1 -2 -2 -1 -1 -1 -2
-3 -4 -4 -4 -4 -3 -3 -3 -3 -4 -4 -5 -6 -6 -6 -7 -7 -7 -7 -6 -6 -6 -6 -6 -6 -6 -5 -5 -5 -4 -4 -4 -4 -4 -4 -4 -4 -3 -3 -2 -2 -2 -1 -1 -2 -3 -3 -4 -3 -2 -1 -1 -1 -1 -1 -1 -1 -1 -1 -1 -1 -0 -0 -0 -0 -0 -0 -0 -1
-5 -5 -6 -6 -6 -5 -5 -5 -5 -5 -6 -6 -7 -7 -8 -8 -8 -8 -7 -7 -7 -7 -7 -6 -6 -6 -6 -5 -5 -5 -4 -4 -4 -3 -3 -2 -3 -2 -2 -1 -1 -1 -0 -1 -2 -2 -2 -2 -1 -1 -0 -0 -1 -1 -2 -2 -2 -2 -1 -1 -0 0 0 1 1 1 0 0 0
-5 -6 -6 -6 -6 -6 -6 -6 -6 -6 -7 -7 -7 -7 -8 -8 -8 -7 -7 -7 -7 -7 -6 -6 -6 -6 -5 -5 -4 -4 -4 -4 -3 -2 -2 -1 -1 -1 -1 -0 0 0 0 -0 -1 -1 -1 -0 -0 -0 -1 -1 -2 -2 -2 -2 -2 -1 -1 -1 -1 -0 0 1 2 2 1 1 1
-5 -5 -5 -6 -6 -6 -6 -6 -6 -6 -7 -7 -7 -7 -7 -7 -6 -6 -6 -6 -6 -5 -5 -5 -5 -5 -4 -4 -3 -3 -2 -2 -2 -2 -1 -1 -1 -0 0 0 1 1 1 0 -0 -1 -1 -1 -1 -1 -1 -2 -2 -2 -2 -2 -1 -1 -1 -1 -1 -1 0 1 2 2 2 1 2
-4 -4 -4 -4 -4 -4 -5 -5 -5 -6 -6 -6 -6 -6 -5 -5 -5 -5 -5 -4 -4 -4 -4 -4 -4 -3 -3 -2 -2 -2 -1 -1 -1 -1 -1 -1 -1 -0 -0 0 0 0 1 0 -0 -1 -1 -1 -1 -1 -1 -1 -2 -2 -2 -2 -1 -1 -1 -1 -1 -1 0 1 2 2 1 1 1
-3 -3 -3 -3 -3 -3 -3 -3 -4 -4 -4 -4 -4 -4 -4 -4 -3 -3 -3 -3 -3 -2 -2 -2 -2 -1 -1 -1 -1 -0 -0 -1 -1 -1 -1 -2 -1 -1 -1 -0 -0 -0 -0 -1 -1 -1 -2 -2 -2 -1 -1 -1 -2 -2 -2 -3 -2 -2 -2 -2 -2 -1 0 1 1 1 1 0 1
-2 -2 -2 -2 -2 -2 -2 -2 -2 -2 -2 -3 -3 -3 -3 -3 -2 -2 -2 -1 -1 -1 -1 -1 -0 0 0 0 0 0 0 0 -0 -1 -1 -1 -1 -1 -1 -0 -0 -0 -1 -1 -1 -2 -2 -2 -2 -2 -1 -1 -1 -1 -2 -3 -3 -3 -3 -4 -3 -2 -1 0 1 2 1 -0 0
-1 -1 -1 -1 -1 -1 -1 -1 -1 -1 -1 -1 -2 -2 -2 -2 -2 -1 -1 -1 -1 -0 -0 -0 0 1 1 0 0 0 0 0 0 0 -0 -0 -0 -0 -0 0 0 0 0 0 -1 -1 -1 -2 -2 -2 -2 -1 -1 -0 -0 -1 -1 -2 -3 -3 -3 -2 -1 -0 1 2 2 1 1
-2 -2 -1 -1 -1 -1 -1 -1 -1 -1 -1 -1 -1 -1 -1 -1 -1 -1 -1 -1 -1 -1 -1 -1 -0 -0 -0 -1 -0 -0 -0 -1 -1 -0 -0 -0 -0 0 0 1 1 0 0 0 -0 -0 -0 -1 -1 -2 -2 -2 -1 -0 0 1 0 -0 -0 -1 -1 -1 -0 0 1 2 3 3 3
-1 -1 -2 -1 -1 -1 -1 -1 -1 -1 -1 -2 -2 -1 -1 -1 -1 -1 -1 -2 -2 -2 -2 -1 -2 -2 -2 -2 -1 -1 -2 -2 -1 -1 -1 -1 -1 -1 -1 -0 -1 -1 -1 -1 -1 -1 -1 -1 -2 -2 -3 -3 -2 -1 -0 1 1 1 1 1 1 1 1 1 2 2 3 4 4
-1 -2 -2 -2 -2 -2 -2 -2 -2 -2 -2 -2 -2 -2 -2 -2 -2 -2 -2 -1 -2 -2 -1 -1 -2 -2 -2 -1 -1 -2 -2 -2 -2 -2 -2 -1 -1 -1 -1 -1 -2 -2 -2 -2 -3 -3 -2 -2 -2 -3 -3 -3 -2 -2 -1 0 1 2 2 3 3 3 2 2 2 2 3 4 4
-2 -2 -2 -3 -3 -3 -3 -3 -3 -3 -2 -2 -2 -2 -2 -2 -1 -1 -1 -1 -1 -1 -1 -1 -1 -1 -1 -1 -1 -1 -1 -1 -1 -2 -1 -1 -1 -1 -1 -1 -1 -2 -2 -2 -3 -3 -2 -2 -2 -3 -3 -3 -3 -2 -2 -0 0 1 2 3 3 3 3 2 2 2 3 3 3
-2 -2 -2 -2 -3 -3 -3 -3 -3 -3 -3 -2 -2 -2 -2 -2 -2 -1 -1 -1 -0 -0 -1 -1 -0 -0 -0 -0 -0 -0 -0 0 -0 -0 -0 0 0 1 1 1 0 -0 -1 -1 -2 -1 -1 -1 -2 -2 -3 -4 -3 -3 -3 -2 -2 -1 0 1 2 3 3 2 2 2 3 3 2
-2 -2 -2 -2 -2 -2 -2 -2 -2 -2 -2 -2 -2 -2 -2 -1 -2 -2 -1 -1 -1 -1 -1 -1 -1 -1 -1 -0 0 -0 -0 -0 -0 -0 -0 0 1 2 2 2 2 1 1 -0 -1 -0 -0 -1 -1 -1 -2 -3 -3 -3 -3 -3 -3 -2 -1 -1 0 1 2 1 1 1 2 2 2
-0 -0 -1 -0 -0 -0 -0 -1 -1 -1 -1 -1 -1 -1 -0 -0 -0 -0 -0 -1 -1 -1 -1 -1 -1 -1 -1 -1 -0 -0 -0 -1 -1 -1 -1 -0 1 2 2 2 2 2 1 0 -0 -0 0 -1 -1 -1 -1 -2 -2 -2 -2 -2 -2 -2 -2 -1 -0 0 1 1 0 0 1 1 1
2 2 2 1 1 2 1 1 1 1 1 1 1 1 1 1 1 1 2 2 1 0 -0 -1 -1 -1 -1 -1 -1 -1 -1 -1 -1 -2 -2 -1 -0 1 2 3 3 2 1 1 0 0 0 -0 -1 -1 -1 -1 -1 -1 -1 -1 -2 -2 -1 -1 -0 0 1 1 0 -0 -0 0 -0
3 3 3 3 3 3 2 2 2 2 1 1 1 1 1 1 1 1 2 3 3 2 1 1 1 1 1 1 1 -0 -1 -0 -1 -1 -2 -2 -1 -0 0 2 2 2 1 0 0 0 1 1 -0 -1 -1 -1 -1 -1 -0 -0 -1 -1 -0 -0 -0 0 1 1 0 -0 -0 -0 -1
2 2 2 2 2 1 2 2 1 1 1 1 1 1 1 0 -0 -0 0 2 2 2 1 1 1 1 2 3 3 2 1 1 1 1 0 -0 -0 0 1 2 2 1 1 -0 -1 -0 0 0 -0 -1 -1 -1 -1 -1 0 0 0 1 1 1 1 1 2 1 0 -0 -0 -0 -1
-0 -0 -0 -0 -1 -1 -0 -0 0 0 0 0 -0 0 0 0 -0 -1 -1 -0 0 1 1 0 -0 -0 0 2 2 2 2 1 2 3 3 3 3 3 4 4 4 3 2 0 -1 -1 -0 -0 -1 -1 -2 -2 -2 -2 -1 0 0 1 2 3 2 2 2 2 1 -0 -1 -0 0
-1 -1 -1 -1 -1 -1 -1 -1 -1 -1 -0 0 0 0 0 1 0 -0 -0 0 1 1 1 2 0 -0 -0 1 1 1 1 0 -0 0 1 2 3 4 6 6 6 6 6 4 2 0 -0 -0 -1 -1 -2 -3 -3 -3 -2 -2 -1 0 1 3 3 3 2 2 2 1 -0 -0 1
-2 -1 -1 -1 -1 -0 -0 -0 -1 -0 0 1 1 1 1 2 1 1 1 2 2 2 3 4 3 2 2 2 3 3 3 2 0 -0 -0 0 1 2 4 5 6 7 7 7 6 4 3 2 1 0 -1 -2 -3 -4 -3 -3 -2 -2 -1 0 1 2 2 2 3 2 1 1 1
Height
5667 5669 5671 5672 5675 5676 5679 5683 5686 5687 5687 5687 5688 5690 5691 5692 5693 5693 5693 5693 5694 5696 5697 5698 5699 5701 5702 5703 5703 5704 5705 5705 5706 5706 5707 5707 5708 5708 5710 5711 5711 5711 5711 5712 5712 5713 5714 5715 5717 5719 5719 5719 5720 5721 5721 5721 5721 5721 5721 5722 5723 5724 5724 5725 5725 5726 5727 5727 5728
5665 5666 5668 5670 5672 5674 5677 5680 5683 5685 5685 5685 5686 5687 5688 5688 5689 5689 5690 5691 5692 5693 5695 5696 5697 5698 5699 5700 5701 5701 5701 5701 5701 5702 5702 5703 5703 5704 5705 5705 5706 5706 5707 5708 5708 5709 5710 5711 5712 5713 5714 5714 5715 5716 5717 5718 5718 5718 5718 5718 5719 5720 5720 5721 5721 5722 5723 5723 5724
5662 5664 5666 5668 5670 5672 5675 5676 5678 5680 5681 5681 5682 5684 5685 5685 5686 5686 5688 5689 5690 5691 5692 5693 5694 5695 5696 5696 5697 5697 5697 5697 5697 5697 5698 5699 5699 5700 5700 5701 5701 5702 5703 5703 5704 5705 5706 5707 5708 5708 5709 5710 5711 5711 5712 5713 5714 5714 5715 5715 5716 5716 5716 5716 5717 5719 5720 5720 5721
5660 5662 5664 5666 5669 5671 5673 5675 5676 5677 5678 5679 5680 5682 5683 5684 5685 5685 5685 5686 5687 5689 5689 5690 5690 5691 5692 5692 5693 5693 5693 5693 5693 5694 5694 5695 5696 5696 5696 5697 5697 5698 5699 5700 5701 5701 5702 5703 5704 5705 5706 5707 5707 5708 5709 5709 5710 5710 5711 5711 5712 5712 5712 5713 5714 5716 5716 5716 5717
5659 5661 5663 5665 5667 5670 5671 5674 5676 5676 5677 5678 5679 5681 5682 5683 5685 5685 5685 5685 5686 5687 5688 5689 5688 5687 5688 5689 5689 5689 5689 5689 5689 5690 5691 5692 5692 5693 5693 5694 5694 5695 5695 5696 5697 5698 5700 5701 5701 5702 5703 5704 5705 5705 5705 5706 5706 5706 5707 5708 5709 5709 5710 5711 5711 5712 5713 5714 5714
5657 5660 5661 5663 5666 5667 5669 5671 5673 5674 5675 5676 5677 5678 5680 5681 5682 5683 5684 5684 5684 5685 5686 5688 5687 5685 5685 5686 5686 5686 5686 5687 5688 5689 5689 5689 5690 5690 5691 5691 5691 5692 5692 5693 5694 5696 5696 5698 5699 5700 5700 5701 5702 5702 5703 5704 5704 5704 5705 5705 5706 5706 5707 5707 5708 5710 5710 5711 5711
5656 5658 5661 5663 5664 5666 5667 5669 5671 5672 5673 5674 5675 5676 5677 5678 5680 5681 5681 5681 5682 5682 5684 5685 5685 5684 5683 5684 5684 5686 5687 5688 5690 5690 5689 5689 5688 5688 5688 5689 5689 5689 5690 5691 5692 5693 5694 5695 5696 5697 5698 5699 5701 5702 5702 5703 5703 5703 5702 5702 5702 5703 5704 5705 5706 5706 5707 5707 5708
5655 5658 5660 5662 5663 5665 5667 5668 5669 5670 5671 5672 5674 5675 5676 5677 5679 5680 5680 5680 5681 5681 5681 5682 5682 5681 5681 5681 5682 5684 5686 5687 5689 5688 5687 5686 5686 5686 5686 5686 5687 5687 5688 5689 5690 5691 5692 5694 5695 5694 5695 5697 5698 5699 5699 5699 5701 5701 5701 5700 5701 5703 5704 5705 5704 5703 5704 5704 5705
5655 5656 5658 5660 5661 5663 5665 5667 5668 5669 5671 5672 5673 5674 5674 5675 5676 5677 5677 5677 5678 5678 5679 5679 5678 5678 5679 5680 5681 5682 5682 5683 5683 5683 5683 5683 5683 5684 5684 5686 5686 5686 5686 5689 5689 5690 5691 5692 5692 5692 5692 5694 5694 5694 5694 5695 5698 5699 5699 5699 5700 5701 5702 5702 5702 5701 5700 5701 5701
5653 5655 5656 5658 5660 5661 5663 5665 5666 5668 5669 5671 5672 5672 5672 5672 5672 5672 5672 5672 5673 5674 5675 5675 5675 5675 5676 5677 5678 5679 5679 5679 5679 5679 5680 5680 5681 5681 5683 5685 5686 5685 5685 5686 5688 5689 5690 5691 5691 5690 5690 5691 5691 5692 5692 5692 5694 5695 5696 5697 5697 5699 5700 5698 5697 5697 5698 5699 5698
5652 5655 5656 5657 5659 5660 5662 5664 5665 5666 5668 5669 5669 5669 5669 5669 5668 5668 5667 5668 5669 5670 5670 5671 5671 5673 5674 5675 5676 5676 5676 5676 5676 5677 5677 5678 5680 5681 5681 5684 5684 5684 5685 5686 5684 5685 5686 5688 5689 5689 5688 5688 5689 5689 5689 5690 5690 5691 5692 5693 5694 5695 5694 5694 5694 5695 5695 5696 5696
5652 5654 5655 5656 5657 5659 5661 5662 5663 5665 5666 5666 5666 5666 5665 5664 5664 5664 5664 5664 5664 5665 5666 5666 5668 5670 5671 5672 5672 5672 5673 5673 5674 5675 5676 5677 5677 5678 5679 5680 5680 5681 5681 5681 5681 5681 5683 5684 5686 5686 5686 5685 5685 5686 5686 5687 5688 5689 5689 5690 5691 5692 5692 5692 5692 5692 5692 5692 5693
5651 5652 5653 5654 5656 5657 5658 5660 5661 5661 5662 5663 5663 5663 5662 5661 5661 5660 5660 5660 5660 5661 5662 5663 5664 5666 5667 5668 5669 5670 5670 5671 5671 5672 5673 5674 5675 5676 5676 5676 5677 5677 5677 5677 5678 5679 5680 5681 5682 5683 5683 5682 5682 5683 5684 5684 5685 5686 5686 5687 5687 5688 5688 5688 5689 5689 5689 5689 5689
5650 5651 5651 5652 5653 5654 5655 5656 5656 5657 5658 5659 5659 5660 5660 5659 5659 5659 5658 5658 5658 5658 5659 5661 5661 5663 5664 5665 5666 5667 5668 5669 5670 5671 5671 5672 5673 5674 5674 5675 5675 5675 5675 5676 5676 5677 5677 5678 5678 5679 5680 5679 5680 5680 5681 5681 5682 5682 5683 5683 5684 5684 5685 5685 5685 5685 5686 5686 5686
5646 5646 5647 5647 5648 5649 5650 5651 5652 5652 5653 5654 5655 5656 5656 5657 5657 5657 5657 5657 5657 5657 5658 5659 5660 5661 5662 5663 5664 5665 5666 5666 5668 5669 5670 5670 5671 5671 5672 5672 5673 5673 5674 5674 5675 5675 5675 5676 5676 5676 5676 5676 5676 5677 5678 5679 5679 5680 5680 5681 5681 5681 5681 5681 5682 5682 5683 5683 5683
5641 5642 5643 5643 5644 5645 5646 5647 5648 5649 5650 5651 5651 5653 5654 5655 5655 5656 5656 5656 5656 5656 5657 5658 5659 5660 5661 5661 5662 5662 5663 5664 5665 5666 5667 5668 5668 5669 5669 5670 5670 5671 5671 5671 5672 5672 5673 5673 5673 5673 5673 5673 5674 5674 5675 5675 5676 5676 5677 5677 5678 5678 5678 5679 5679 5679 5680 5680 5680
5639 5640 5640 5641 5641 5642 5643 5644 5645 5646 5647 5648 5649 5651 5652 5652 5654 5655 5655 5656 5656 5656 5656 5657 5658 5659 5660 5660 5661 5661 5662 5662 5663 5663 5664 5665 5665 5666 5666 5667 5668 5668 5668 5669 5669 5669 5669 5670 5670 5670 5670 5670 5670 5671 5671 5671 5671 5672 5672 5673 5674 5674 5675 5675 5675 5676 5676 5676 5676
5638 5638 5639 5639 5640 5641 5641 5642 5643 5644 5645 5646 5648 5649 5650 5651 5652 5653 5654 5654 5655 5655 5656 5656 5657 5657 5658 5659 5659 5660 5660 5661 5661 5661 5662 5662 5662 5663 5663 5664 5664 5665 5666 5666 5666 5666 5666 5666 5666 5666 5666 5666 5666 5667 5667 5667 5668 5668 5669 5669 5670 5670 5671 5671 5671 5671 5672 5672 5672
5636 5637 5637 5638 5638 5639 5640 5641 5642 5643 5644 5645 5646 5647 5648 5649 5650 5651 5652 5652 5653 5653 5654 5655 5656 5656 5657 5657 5657 5658 5658 5659 5659 5659 5659 5659 5660 5660 5660 5660 5661 5661 5661 5662 5662 5662 5663 5663 5663 5663 5663 5663 5663 5663 5663 5664 5664 5664 5665 5665 5666 5666 5666 5667 5667 5667 5668 5668 5668
5635 5636 5636 5636 5637 5638 5638 5639 5640 5641 5642 5643 5645 5646 5646 5647 5648 5649 5650 5650 5651 5651 5652 5653 5654 5654 5655 5655 5655 5655 5656 5656 5656 5656 5656 5656 5656 5656 5657 5657 5657 5657 5657 5658 5658 5658 5659 5659 5660 5660 5660 5660 5660 5660 5660 5660 5660 5661 5661 5661 5662 5662 5662 5663 5663 5663 5663 5664 5664
5633 5634 5635 5635 5636 5636 5637 5638 5639 5640 5641 5642 5643 5644 5644 5645 5646 5646 5647 5648 5648 5649 5650 5650 5651 5651 5652 5652 5652 5652 5652 5652 5653 5653 5653 5653 5653 5653 5653 5653 5653 5653 5653 5653 5654 5654 5654 5655 5655 5656 5656 5656 5656 5656 5656 5656 5656 5657 5657 5657 5657 5658 5658 5658 5658 5659 5659 5659 5659
5632 5632 5633 5633 5634 5635 5636 5636 5637 5638 5639 5640 5641 5641 5642 5643 5644 5644 5645 5645 5646 5646 5646 5647 5647 5648 5648 5648 5649 5649 5649 5649 5649 5649 5649 5649 5649 5649 5649 5649 5649 5649 5649 5649 5649 5650 5650 5651 5651 5651 5651 5652 5652 5652 5653 5653 5653 5653 5653 5653 5653 5653 5654 5654 5654 5654 5655 5655 5655
5630 5631 5631 5632 5632 5633 5634 5635 5636 5636 5637 5638 5639 5639 5640 5641 5641 5641 5642 5642 5643 5643 5643 5643 5644 5644 5644 5645 5645 5645 5645 5645 5645 5645 5645 5645 5645 5645 5645 5645 5645 5645 5645 5645 5645 5645 5646 5646 5646 5646 5646 5647 5647 5648 5648 5649 5649 5649 5649 5649 5649 5649 5649 5649 5650 5650 5650 5651 5651
5629 5629 5630 5630 5631 5631 5632 5633 5634 5635 5635 5636 5636 5637 5637 5638 5638 5638 5639 5639 5639 5640 5640 5640 5640 5641 5641 5641 5641 5641 5641 5641 5641 5641 5641 5641 5641 5641 5641 5641 5641 5641 5640 5640 5641 5641 5641 5641 5641 5642 5642 5642 5643 5643 5644 5645 5645 5646 5645 5645 5645 5645 5645 5646 5646 5646 5646 5646 5646
5627 5628 5628 5629 5629 5630 5630 5631 5632 5632 5633 5633 5634 5634 5635 5635 5635 5635 5636 5636 5636 5636 5636 5637 5637 5637 5637 5637 5637 5637 5637 5637 5637 5637 5637 5637 5637 5637 5637 5637 5636 5636 5636 5636 5636 5636 5636 5637 5637 5637 5637 5638 5638 5638 5639 5640 5641 5641 5641 5641 5641 5641 5641 5641 5642 5642 5642 5642 5642
5626 5626 5626 5627 5627 5628 5628 5629 5630 5630 5631 5631 5631 5632 5632 5632 5632 5633 5633 5633 5633 5633 5633 5633 5634 5634 5634 5634 5634 5634 5633 5633 5633 5633 5633 5633 5633 5633 5633 5633 5633 5632 5632 5632 5632 5632 5632 5632 5633 5633 5633 5633 5634 5634 5634 5635 5635 5636 5636 5636 5637 5637 5637 5637 5637 5638 5638 5638 5638
5624 5624 5625 5625 5626 5626 5626 5627 5627 5628 5628 5628 5629 5629 5629 5630 5630 5630 5630 5630 5630 5630 5631 5631 5631 5631 5631 5631 5630 5630 5630 5630 5630 5630 5629 5629 5629 5629 5629 5629 5629 5628 5628 5628 5628 5628 5628 5628 5628 5628 5628 5629 5629 5629 5630 5630 5630 5630 5631 5631 5632 5632 5633 5633 5633 5633 5633 5633 5633
5622 5623 5623 5624 5624 5624 5625 5625 5625 5626 5626 5626 5626 5626 5626 5627 5627 5627 5627 5627 5627 5627 5627 5627 5627 5627 5627 5627 5627 5626 5626 5626 5626 5626 5626 5625 5625 5625 5625 5625 5624 5624 5624 5624 5623 5623 5623 5623 5623 5623 5623 5624 5624 5624 5625 5625 5625 5625 5626 5626 5626 5627 5627 5628 5628 5628 5628 5628 5628
5621 5621 5622 5622 5622 5622 5623 5623 5623 5623 5623 5623 5623 5624 5624 5624 5624 5624 5624 5624 5624 5624 5623 5623 5623 5623 5623 5623 5623 5622 5622 5622 5622 5622 5621 5621 5621 5621 5620 5620 5620 5619 5619 5619 5618 5618 5618 5618 5618 5618 5618 5618 5618 5619 5619 5620 5620 5620 5620 5621 5621 5621 5621 5622 5622 5622 5623 5623 5623
5619 5620 5620 5620 5621 5621 5621 5621 5621 5621 5621 5621 5621 5620 5620 5620 5620 5620 5620 5620 5620 5619 5619 5619 5619 5619 5618 5618 5618 5618 5617 5617 5617 5617 5617 5617 5616 5616 5615 5615 5614 5614 5613 5613 5613 5613 5613 5612 5612 5612 5612 5612 5613 5613 5614 5614 5614 5615 5615 5615 5615 5616 5616 5616 5616 5616 5617 5617 5617
5617 5617 5618 5618 5618 5618 5618 5618 5618 5618 5618 5617 5617 5617 5617 5617 5616 5616 5616 5616 5615 5615 5614 5614 5614 5613 5613 5613 5612 5612 5612 5611 5611 5611 5611 5611 5611 5611 5610 5610 5609 5608 5608 5607 5607 5607 5607 5607 5607 5606 5606 5607 5607 5608 5608 5608 5609 5609 5609 5610 5610 5610 5610 5610 5610 5611 5611 5611 5611
5614 5615 5615 5615 5615 5615 5615 5615 5615 5615 5614 5614 5614 5614 5613 5613 5612 5612 5611 5611 5611 5610 5610 5609 5609 5608 5608 5607 5607 5607 5606 5606 5606 5606 5605 5605 5605 5605 5605 5604 5603 5603 5602 5602 5601 5601 5601 5601 5601 5601 5601 5601 5601 5602 5602 5603 5603 5603 5604 5604 5604 5604 5604 5604 5604 5605 5605 5605 5605
5612 5612 5612 5612 5612 5611 5611 5611 5611 5611 5611 5610 5610 5610 5609 5609 5608 5608 5607 5606 5606 5605 5605 5604 5604 5603 5603 5602 5602 5601 5601 5600 5600 5600 5599 5599 5599 5599 5599 5598 5597 5597 5596 5596 5596 5596 5595 5595 5595 5595 5595 5595 5595 5596 5596 5596 5597 5597 5598 5598 5598 5598 5598 5598 5598 5598 5598 5599 5599
5609 5609 5609 5608 5608 5608 5608 5608 5607 5607 5607 5606 5606 5606 5605 5605 5604 5604 5603 5602 5601 5601 5600 5599 5599 5598 5598 5597 5596 5596 5596 5595 5594 5594 5594 5593 5593 5593 5593 5592 5591 5591 5591 5590 5590 5589 5589 5589 5589 5589 5588 5589 5589 5589 5590 5590 5590 5591 5591 5592 5592 5592 5592 5592 5592 5592 5592 5592 5592
5606 5606 5606 5606 5605 5605 5605 5604 5604 5604 5603 5603 5602 5602 5601 5601 5600 5600 5599 5598 5597 5597 5596 5595 5594 5594 5593 5592 5592 5591 5590 5590 5589 5589 5588 5588 5587 5587 5586 5586 5585 5585 5584 5584 5583 5583 5583 5583 5582 5582 5582 5582 5583 5583 5583 5584 5584 5584 5585 5585 5586 5586 5586 5586 5586 5586 5586 5586 5586
5604 5604 5604 5603 5603 5602 5602 5601 5601 5601 5600 5600 5599 5599 5598 5597 5597 5596 5595 5595 5594 5593 5592 5591 5591 5590 5589 5588 5587 5586 5586 5585 5584 5583 5583 5582 5582 5581 5581 5580 5579 5578 5578 5577 5577 5576 5576 5576 5576 5576 5576 5576 5576 5577 5577 5577 5578 5578 5578 5579 5579 5579 5579 5579 5579 5579 5579 5580 5580
5603 5602 5602 5601 5601 5601 5600 5599 5599 5598 5597 5596 5596 5595 5595 5594 5593 5592 5591 5591 5590 5589 5588 5587 5587 5586 5585 5584 5583 5582 5581 5580 5580 5579 5578 5577 5576 5576 5575 5575 5573 5572 5571 5571 5570 5570 5570 5569 5569 5569 5569 5569 5569 5570 5570 5571 5571 5571 5572 5572 5572 5572 5572 5572 5572 5572 5573 5573 5573
5602 5601 5601 5600 5600 5599 5598 5597 5596 5596 5595 5594 5593 5592 5591 5591 5589 5588 5588 5587 5586 5585 5584 5583 5582 5581 5581 5580 5579 5578 5577 5576 5575 5574 5573 5572 5571 5571 5570 5569 5568 5567 5566 5565 5564 5563 5563 5562 5562 5562 5562 5562 5562 5563 5563 5564 5564 5565 5565 5566 5566 5566 5566 5566 5566 5566 5566 5566 5567
5601 5601 5600 5599 5599 5598 5597 5596 5595 5594 5593 5592 5591 5590 5589 5588 5586 5585 5584 5583 5582 5581 5580 5579 5578 5576 5576 5575 5574 5572 5571 5570 5569 5569 5568 5567 5566 5566 5565 5564 5563 5561 5560 5559 5558 5557 5557 5556 5556 5555 5555 5555 5555 5556 5556 5556 5557 5558 5558 5559 5559 5559 5559 5559 5560 5560 5560 5560 5561
5600 5600 5599 5598 5597 5596 5595 5594 5593 5592 5591 5590 5588 5587 5586 5585 5583 5582 5581 5579 5578 5577 5576 5575 5573 5572 5571 5570 5568 5567 5566 5565 5563 5562 5561 5561 5560 5560 5559 5558 5557 5556 5555 5554 5552 5551 5551 5550 5549 5549 5548 5548 5548 5548 5549 5550 5550 5551 5551 5551 5552 5552 5553 5553 5553 5554 5554 5554 5555
5598 5597 5596 5596 5595 5594 5592 5591 5590 5589 5587 5586 5585 5584 5582 5581 5579 5578 5576 5575 5574 5572 5571 5570 5568 5567 5566 5564 5563 5562 5560 5559 5557 5556 5555 5554 5553 5552 5551 5551 5550 5549 5548 5547 5546 5545 5544 5544 5543 5542 5542 5541 5541 5541 5542 5542 5543 5543 5544 5544 5545 5545 5546 5546 5547 5547 5548 5548 5549